Volver al catálogo

COSMOS 2218

ActivoNavegaciónPO
NORAD 22207·PAYLOAD·🇷🇺 Russia

Lanzado Oct 29, 1992 desde Plesetsk Cosmodrome

Loading…

Próximos Pases (próximas 24 horas)

TLE

ActualizadoSource: Space-Track

Época: Sep 14, 2026, 22:33 UTC

1 22207U 92073A   26257.94015654  .00000030  00000-0  15443-4 0  9994
2 22207  82.9176  69.0712 0033828 110.7664  42.9245 13.73098606697250

Sigue COSMOS 2218 en tiempo real con AllMySat

Download on the App Store